[[{"header":{"parameterUnit":"m.s-1","parameterCategory":1,"la1":30.2991,"la2":30.254,"lo1":-89.0895,"lo2":-89.0444,"dy":0.0017,"dx":0.0017,"nx":28,"ny":28,"refTime":"2025-03-30T09:00:00:Z","depth":0,"parameterNumber":2,"parameterNumberName":"U-component_of_WINDS"},"data":[0,0,0,0,0,0,0,0,0,0,0,0,0,0,0,0,0,0,0,0,0,0,0,0,0,0,0,0,0,0,0,0,0,0,0,0,0,0,0,0,0,0,0,0,0,0,0,0,0,0,0,0,0,0,0,0,0,0,-3.7946,-3.7947,0,-3.8047,-3.8048,-3.8049,-3.8064,-3.8063,-3.8062,-3.8061,-3.8167,-3.8171,-3.8175,0,0,0,0,0,0,0,0,0,0,0,0,0,-3.7767,-3.777,-3.7946,-3.7947,-3.7948,-3.8047,-3.8048,-3.805,-3.8064,-3.8063,-3.8062,-3.8061,-3.8166,-3.817,-3.8175,0,0,0,0,0,0,0,0,0,0,0,0,0,-3.7854,-3.7771,-3.7946,-3.7967,-3.797,-3.8047,-3.8048,-3.805,-3.8064,-3.8063,-3.8061,-3.806,-3.8165,-3.817,-3.8176,-3.8238,0,0,-3.8193,-3.8195,0,0,0,0,0,0,0,0,-3.7849,-3.7861,-3.7963,-3.7966,-3.7969,-3.8041,-3.8024,-3.8113,-3.8065,-3.8029,-3.8061,-3.8059,-3.8127,-3.8135,-3.8157,-3.8243,-3.8248,-3.8193,-3.8196,-3.8199,-3.82,0,0,0,0,0,0,0,-3.7843,-3.7857,-3.7986,-3.7964,-3.7968,-3.7973,-3.7983,-3.8041,-3.8084,-3.8032,-3.8033,-3.8045,-3.8128,-3.8152,-3.816,-3.8249,-3.8193,-3.8198,-3.8201,-3.8203,-3.839,-3.8391,0,0,0,0,0,0,-3.7833,-3.7851,-3.7983,-3.7989,-3.7905,-3.7977,-3.7989,-3.802,-3.8084,-3.8092,-3.8046,-3.8045,-3.8143,-3.8154,-3.8164,-3.824,-3.8199,-3.8204,-3.8207,-3.8388,-3.839,-3.8392,0,0,0,0,0,0,-3.7829,-3.7844,-3.7979,-3.7921,-3.7938,-3.7982,-3.8016,-3.8022,-3.8046,-3.8094,-3.8102,-3.8062,-3.8143,-3.8156,-3.8219,-3.8244,-3.8206,-3.8212,-3.8386,-3.8389,-3.8391,-3.8392,0,0,0,0,0,0,-3.7824,-3.7843,-3.7867,-3.7921,-3.7941,-3.8031,-3.8017,-3.8025,-3.8055,-3.8055,-3.8112,-3.812,-3.8142,-3.8211,-3.8224,-3.8251,-3.8216,-3.8384,-3.8387,-3.839,-3.839,-3.8395,-3.8398,0,0,0,0,0,-3.7817,-3.7864,-3.7868,-3.7884,-3.7971,-3.8033,-3.8044,-3.8069,-3.8057,-3.8082,-3.8112,-3.8118,-3.8239,-3.8217,-3.8233,-3.8261,-3.8383,-3.8386,-3.839,-3.8389,-3.8394,-3.8398,0,0,0,0,0,0,-3.7813,-3.7872,-3.7876,-3.7942,-3.7982,-3.8035,-3.8066,-3.8074,-3.8119,-3.8117,-3.8146,-3.8159,-3.822,-3.8247,-3.8221,-3.8324,-3.831,-3.8317,-3.8304,-3.8309,-3.8313,-3.8304,-3.822,0,0,0,0,0,-3.7819,-3.7863,-3.7913,-3.7966,-3.7986,-3.8022,-3.805,-3.8065,-3.8109,-3.8126,-3.8162,-3.8204,-3.8251,-3.8282,-3.8329,-3.8395,-3.8407,-3.8422,-3.8426,-3.8429,-3.8434,-3.847,-3.8477,-3.8404,-3.8404,-3.8404,0,0,-3.7833,-3.7871,-3.7897,-3.7966,-3.7999,-3.8044,-3.8037,-3.8085,-3.8119,-3.8134,-3.8194,-3.8222,-3.8271,-3.8336,-3.8366,-3.836,-3.8457,-3.8434,-3.8436,-3.8439,-3.8474,-3.8481,-3.8487,-3.8406,-3.8406,-3.8405,0,0,-3.7881,-3.7914,-3.7961,-3.7994,-3.8043,-3.8068,-3.8079,-3.8131,-3.8149,-3.8211,-3.8222,-3.8264,-3.8345,-3.8379,-3.8407,-3.8468,-3.8474,-3.8482,-3.8502,-3.8537,-3.8542,-3.8547,-3.8567,-3.8574,-3.8488,-3.8488,-3.8488,0,-3.7892,-3.796,-3.7985,-3.8032,-3.8062,-3.8076,-3.8124,-3.8155,-3.8217,-3.8238,-3.823,-3.8332,-3.8367,-3.8438,-3.8453,-3.8476,-3.8489,-3.8475,-3.8539,-3.8545,-3.855,-3.8569,-3.8577,-3.8488,-3.8488,-3.8488,-3.8488,0,-3.797,-3.8017,-3.8049,-3.8107,-3.8141,-3.8188,-3.8221,-3.8252,-3.8264,-3.8289,-3.8351,-3.8393,-3.8448,-3.8466,-3.848,-3.854,-3.8535,-3.8533,-3.8519,-3.8557,-3.8575,-3.8583,-3.8489,-3.8489,-3.8489,-3.8488,0,0,-3.8017,-3.8088,-3.8099,-3.8125,-3.818,-3.8217,-3.8266,-3.8318,-3.8343,-3.8386,-3.8427,-3.8495,-3.8494,-3.8525,-3.8543,-3.8574,-3.8616,-3.8568,-3.857,-3.8574,-3.8683,-3.8682,-3.869,-3.8622,-3.8623,-3.8625,-3.8678,0,-3.8069,-3.8154,-3.8177,-3.8249,-3.8292,-3.8307,-3.8349,-3.8387,-3.8412,-3.8453,-3.8481,-3.8528,-3.8524,-3.8543,-3.8574,-3.8605,-3.8638,-3.8601,-3.8659,-3.8661,-3.8644,-3.87,-3.87,-3.8749,-3.8686,-3.8687,-3.8688,0,-3.8142,-3.8184,-3.8259,-3.8308,-3.8327,-3.8364,-3.8413,-3.8452,-3.8496,-3.8512,-3.8547,-3.8562,-3.8613,-3.8598,-3.8668,-3.8642,-3.8668,-3.8687,-3.8689,-3.8694,-3.8675,-3.8705,-3.8765,-3.8772,-3.87,-3.8699,-3.8698,0,-3.8165,-3.8242,-3.8296,-3.8319,-3.8377,-3.8403,-3.8429,-3.8472,-3.8501,-3.8545,-3.8564,-3.8613,-3.864,-3.8678,-3.8706,-3.8693,-3.8773,-3.8761,-3.8788,-3.8787,-3.8802,-3.88,-3.8865,-3.8822,-3.8822,-3.8822,-3.8822,0,-3.822,-3.8266,-3.8307,-3.8341,-3.8391,-3.8419,-3.8469,-3.8496,-3.8534,-3.8573,-3.859,-3.8626,-3.8661,-3.8703,-3.8725,-3.8779,-3.8792,-3.8806,-3.8811,-3.8803,-3.8801,-3.8819,-3.8815,-3.8824,-3.8823,-3.8823,-3.8823,0,-3.8255,-3.8285,-3.8345,-3.8395,-3.8409,-3.8444,-3.8487,-3.852,-3.8546,-3.8595,-3.8608,-3.8649,-3.8698,-3.873,-3.8794,-3.8809,-3.8867,-3.8872,-3.8851,-3.8853,-3.8877,-3.8873,-3.8954,-3.8965,-3.8916,-3.8916,-3.8917,0,-3.8287,-3.8322,-3.8375,-3.8402,-3.8427,-3.847,-3.85,-3.8529,-3.8559,-3.8612,-3.8638,-3.8689,-3.873,-3.8808,-3.8844,-3.8892,-3.8898,-3.8922,-3.8905,-3.8895,-3.8896,-3.8892,-3.8895,-3.8925,-3.8925,-3.8925,-3.8926,0,-3.834,-3.8353,-3.8394,-3.8441,-3.8475,-3.8513,-3.8552,-3.8573,-3.8609,-3.8642,-3.8692,-3.8724,-3.8788,-3.8837,-3.8889,-3.8916,-3.8927,-3.8931,-3.8939,-3.8931,-3.8916,-3.8922,-3.8856,-3.8929,-3.8928,-3.8928,-3.8928,-3.8928,-3.8373,-3.8404,-3.8446,-3.8491,-3.8523,-3.8558,-3.8591,-3.862,-3.8661,-3.8714,-3.873,-3.8781,-3.8825,-3.8895,-3.8923,-3.8965,-3.8962,-3.8974,-3.8977,-3.8979,-3.8978,-3.8911,-3.8974,-3.8974,-3.8974,-3.8974,-3.8974,0,-3.8425,-3.8453,-3.8494,-3.8546,-3.8582,-3.8588,-3.8631,-3.866,-3.8705,-3.8744,-3.8784,-3.8841,-3.8889,-3.8928,-3.8977,-3.9003,-3.9008,-3.9014,-3.9012,-3.9018,-3.8979,-3.8966,-3.9009,-3.9009,-3.9009,-3.9009,-3.9009,-3.9009,-3.8456,-3.8508,-3.8526,-3.8593,-3.8621,-3.867,-3.8694,-3.8727,-3.8758,-3.882,-3.8859,-3.8884,-3.8923,-3.8975,-3.9019,-3.903,-3.9046,-3.9051,-3.9062,-3.9025,-3.9021,-3.9017,-3.9004,-3.9055,-3.9055,-3.9097,-3.9097,-3.9098]},{"header":{"parameterUnit":"m.s-1","parameterCategory":1,"la1":30.2991,"la2":30.254,"lo1":-89.0895,"lo2":-89.0444,"dy":0.0017,"dx":0.0017,"nx":28,"ny":28,"refTime":"2025-03-30T09:00:00:Z","depth":0,"parameterNumber":3,"parameterNumberName":"V-component_of_WINDS"},"data":[0,0,0,0,0,0,0,0,0,0,0,0,0,0,0,0,0,0,0,0,0,0,0,0,0,0,0,0,0,0,0,0,0,0,0,0,0,0,0,0,0,0,0,0,0,0,0,0,0,0,0,0,0,0,0,0,0,0,4.3278,4.328,0,4.3379,4.338,4.3381,4.3394,4.3393,4.3392,4.3391,4.3489,4.3492,4.3496,0,0,0,0,0,0,0,0,0,0,0,0,0,4.3094,4.3098,4.3278,4.328,4.3281,4.3379,4.338,4.3381,4.3394,4.3392,4.3391,4.339,4.3488,4.3492,4.3496,0,0,0,0,0,0,0,0,0,0,0,0,0,4.3182,4.3099,4.3278,4.3299,4.3302,4.3378,4.338,4.3382,4.3394,4.3392,4.3391,4.339,4.3486,4.3491,4.3496,4.3558,0,0,4.3513,4.3515,0,0,0,0,0,0,0,0,4.3177,4.3189,4.3295,4.3298,4.3301,4.3372,4.3351,4.3441,4.3394,4.3359,4.3391,4.3389,4.3451,4.3459,4.3481,4.3562,4.3567,4.3513,4.3516,4.3518,4.352,0,0,0,0,0,0,0,4.3171,4.3185,4.3318,4.3296,4.33,4.3302,4.3313,4.3368,4.3411,4.3362,4.3363,4.3375,4.3452,4.3476,4.3483,4.3568,4.3513,4.3518,4.3521,4.3523,4.3708,4.3709,0,0,0,0,0,0,4.3162,4.318,4.3315,4.3321,4.3234,4.3307,4.3319,4.3351,4.3411,4.3419,4.3376,4.3375,4.3467,4.3477,4.3487,4.3565,4.3518,4.3523,4.3526,4.3706,4.3708,4.371,0,0,0,0,0,0,4.3158,4.3174,4.3311,4.3251,4.3268,4.3311,4.3347,4.3353,4.3377,4.3422,4.3429,4.3392,4.3467,4.3479,4.3541,4.3568,4.3526,4.3531,4.3704,4.3707,4.3709,4.372,0,0,0,0,0,0,4.3152,4.3172,4.3197,4.3251,4.3272,4.3364,4.3349,4.3356,4.3387,4.3386,4.3439,4.3446,4.3466,4.3533,4.3546,4.3575,4.3535,4.3702,4.3705,4.3708,4.3718,4.3723,4.3727,0,0,0,0,0,4.3146,4.3194,4.3198,4.3214,4.3303,4.3366,4.3377,4.3401,4.3389,4.3414,4.3443,4.3445,4.3563,4.3539,4.3554,4.3585,4.37,4.3704,4.3708,4.3715,4.3722,4.3727,0,0,0,0,0,0,4.3139,4.3202,4.3206,4.3274,4.3315,4.3368,4.34,4.3407,4.3451,4.3448,4.3474,4.3486,4.3547,4.3572,4.3544,4.3648,4.363,4.3637,4.3631,4.3637,4.3642,4.3636,4.3539,0,0,0,0,0,4.3146,4.3193,4.3244,4.3299,4.332,4.3356,4.3384,4.3399,4.3442,4.3459,4.3492,4.3533,4.3579,4.3609,4.3654,4.3721,4.3733,4.3749,4.3754,4.3758,4.3764,4.3803,4.3812,4.3723,4.3723,4.3723,0,0,4.316,4.32,4.3228,4.3299,4.3332,4.338,4.3371,4.3421,4.3457,4.3466,4.3528,4.3554,4.36,4.3666,4.3696,4.3688,4.3791,4.3763,4.3765,4.377,4.3808,4.3817,4.3824,4.3726,4.3725,4.3725,0,0,4.3211,4.3245,4.3296,4.333,4.3382,4.3406,4.3418,4.3471,4.3489,4.3552,4.3561,4.3602,4.3681,4.3715,4.3743,4.3808,4.3812,4.3821,4.3848,4.3886,4.3893,4.3899,4.3925,4.3933,4.3827,4.3827,4.3827,0,4.3221,4.3295,4.332,4.3372,4.3403,4.3416,4.3468,4.3499,4.3562,4.3583,4.3573,4.3675,4.3707,4.3781,4.3798,4.3819,4.3834,4.3816,4.389,4.3896,4.3903,4.3927,4.3937,4.3828,4.3828,4.3828,4.3828,0,4.3307,4.3357,4.3392,4.3456,4.3491,4.3542,4.3574,4.3607,4.3618,4.3644,4.3708,4.3747,4.3802,4.382,4.383,4.3896,4.389,4.3885,4.3867,4.3912,4.3936,4.3945,4.383,4.3829,4.3829,4.3829,0,0,4.3356,4.3435,4.3447,4.3477,4.3536,4.3575,4.3626,4.3682,4.371,4.3753,4.3798,4.3865,4.3861,4.3892,4.3907,4.394,4.3992,4.3931,4.3932,4.3943,4.407,4.4075,4.4086,4.3995,4.3997,4.3998,4.4067,0,4.3416,4.3511,4.3536,4.3616,4.3664,4.3677,4.3722,4.3763,4.3788,4.3832,4.3858,4.3907,4.3897,4.3916,4.3949,4.3979,4.4018,4.3974,4.4037,4.4039,4.4028,4.4098,4.4103,4.4166,4.4076,4.4077,4.4078,0,4.3498,4.3545,4.3631,4.3686,4.3707,4.3748,4.3802,4.3843,4.3889,4.3905,4.3941,4.3953,4.4007,4.3986,4.4061,4.403,4.4057,4.4076,4.4079,4.4087,4.4063,4.411,4.4187,4.4197,4.4093,4.4092,4.4091,0,4.3529,4.3614,4.3677,4.3702,4.3766,4.3795,4.3823,4.3868,4.39,4.3946,4.3968,4.4018,4.4047,4.4085,4.4111,4.4093,4.4185,4.4165,4.4201,4.42,4.4221,4.422,4.4305,4.4234,4.4234,4.4234,4.4234,0,4.3594,4.3647,4.3693,4.3732,4.3791,4.3819,4.3876,4.3904,4.3945,4.3989,4.4001,4.4043,4.4073,4.4118,4.4138,4.4199,4.421,4.4225,4.423,4.4226,4.4224,4.4245,4.4242,4.4237,4.4236,4.4235,4.4235,0,4.364,4.3672,4.3743,4.3799,4.3814,4.3856,4.3903,4.3941,4.3967,4.4023,4.4038,4.4077,4.4131,4.4161,4.4227,4.424,4.4309,4.4311,4.4295,4.4298,4.4332,4.433,4.4436,4.4453,4.4368,4.4369,4.437,0,4.3681,4.3722,4.3783,4.3815,4.3844,4.3894,4.3928,4.3957,4.3991,4.4048,4.408,4.4135,4.4181,4.4266,4.43,4.4352,4.4356,4.439,4.4364,4.4359,4.436,4.4358,4.4363,4.4395,4.4396,4.4396,4.4397,0,4.3751,4.3765,4.3814,4.387,4.3911,4.3955,4.3999,4.4024,4.4059,4.4097,4.4154,4.419,4.4259,4.4314,4.4369,4.4396,4.4403,4.4405,4.4416,4.4413,4.4403,4.4412,4.431,4.4402,4.4402,4.4401,4.4401,4.4401,4.3797,4.3836,4.3886,4.394,4.3977,4.4018,4.4058,4.4089,4.4137,4.4198,4.4211,4.4271,4.4317,4.4391,4.4421,4.4468,4.4461,4.4477,4.4481,4.4485,4.4488,4.4394,4.4477,4.4477,4.4477,4.4477,4.4477,0,4.387,4.3904,4.3954,4.4016,4.4059,4.4063,4.4112,4.4148,4.4202,4.4244,4.429,4.4356,4.441,4.4448,4.4503,4.4534,4.4538,4.4547,4.4546,4.4553,4.449,4.4476,4.4543,4.4543,4.4543,4.4543,4.4543,4.4543,4.3914,4.398,4.4001,4.4085,4.4117,4.4178,4.4206,4.4244,4.4279,4.4353,4.4399,4.4424,4.4466,4.4524,4.4573,4.4583,4.4604,4.4613,4.4623,4.4564,4.4557,4.4551,4.4538,4.4617,4.4617,4.4683,4.4684,4.4684]}]]